[[{"header":{"parameterUnit":"m.s-1","parameterCategory":1,"la1":30.2991,"la2":30.254,"lo1":-89.0895,"lo2":-89.0444,"dy":0.0017,"dx":0.0017,"nx":28,"ny":28,"refTime":"2024-06-23T03:00:00:Z","depth":0,"parameterNumber":2,"parameterNumberName":"U-component_of_WINDS"},"data":[0,0,0,0,0,0,0,0,0,0,0,0,0,0,0,0,0,0,0,0,0,0,0,0,0,0,0,0,0,0,0,0,0,0,0,0,0,0,0,0,0,0,0,0,0,0,0,0,0,0,0,0,0,0,0,0,0,0,1.5166,1.5167,0,1.5208,1.5209,1.5209,1.5191,1.519,1.5189,1.5188,1.5233,1.5235,1.5238,0,0,0,0,0,0,0,0,0,0,0,0,0,1.5072,1.5074,1.5166,1.5167,1.5167,1.5208,1.5209,1.521,1.5192,1.519,1.5189,1.5188,1.5233,1.5235,1.5238,0,0,0,0,0,0,0,0,0,0,0,0,0,1.5113,1.5074,1.5166,1.5163,1.5164,1.5208,1.5209,1.521,1.5192,1.519,1.5189,1.5187,1.5232,1.5235,1.5238,1.5289,0,0,1.5248,1.5249,0,0,0,0,0,0,0,0,1.5111,1.5117,1.5163,1.5164,1.5164,1.5193,1.5192,1.5236,1.5192,1.5181,1.5188,1.5187,1.5221,1.5225,1.5237,1.5291,1.5293,1.5248,1.525,1.5252,1.5252,0,0,0,0,0,0,0,1.5108,1.5115,1.5183,1.5164,1.5164,1.516,1.5165,1.52,1.5209,1.5182,1.5181,1.5186,1.5221,1.5234,1.5238,1.5293,1.5248,1.5251,1.5253,1.5254,1.5391,1.5393,0,0,0,0,0,0,1.5105,1.5113,1.5182,1.5184,1.5133,1.5163,1.5168,1.5185,1.5209,1.5211,1.5187,1.5185,1.5229,1.5234,1.5239,1.5299,1.5252,1.5255,1.5256,1.5389,1.5391,1.5393,0,0,0,0,0,0,1.5103,1.5111,1.518,1.5148,1.5157,1.5167,1.5186,1.5187,1.5199,1.5213,1.5215,1.5198,1.5228,1.5235,1.5276,1.5301,1.5256,1.5259,1.5387,1.539,1.5392,1.542,0,0,0,0,0,0,1.51,1.5111,1.513,1.5149,1.5158,1.5216,1.5188,1.5189,1.5205,1.5202,1.5223,1.5226,1.5227,1.5272,1.5279,1.5304,1.5261,1.5385,1.5388,1.5391,1.5417,1.5424,1.5429,0,0,0,0,0,1.5097,1.5137,1.5131,1.5139,1.5182,1.5218,1.5223,1.5224,1.5207,1.5226,1.5235,1.5225,1.5297,1.5276,1.5285,1.5311,1.5384,1.5387,1.5391,1.5415,1.5422,1.5429,0,0,0,0,0,0,1.5121,1.5139,1.5133,1.518,1.5197,1.5214,1.5239,1.5232,1.5255,1.5252,1.5252,1.5257,1.53,1.531,1.5286,1.5361,1.5338,1.5343,1.5353,1.536,1.5366,1.5362,1.5264,0,0,0,0,0,1.5132,1.5158,1.5173,1.5213,1.5222,1.5229,1.5244,1.5243,1.5261,1.5269,1.5281,1.5299,1.5326,1.5344,1.5369,1.5419,1.5423,1.5441,1.5447,1.5452,1.5457,1.5483,1.5491,1.5406,1.5406,1.5406,0,0,1.5154,1.5167,1.5184,1.5218,1.5231,1.5259,1.5235,1.5266,1.5287,1.5274,1.5313,1.5323,1.5344,1.539,1.541,1.5399,1.5481,1.5457,1.546,1.5463,1.5488,1.5496,1.5503,1.5408,1.5408,1.5407,0,0,1.5208,1.5221,1.5255,1.5269,1.529,1.5294,1.5302,1.5321,1.5326,1.5366,1.5357,1.5382,1.5428,1.5443,1.5457,1.5517,1.5509,1.5526,1.5556,1.5582,1.5588,1.5594,1.5615,1.5623,1.5531,1.5531,1.5531,0,1.5233,1.5274,1.5274,1.5305,1.532,1.5309,1.5344,1.5358,1.5386,1.5397,1.5384,1.5441,1.5454,1.5503,1.5518,1.553,1.5539,1.5523,1.5587,1.5593,1.5599,1.5619,1.5627,1.5533,1.5532,1.5532,1.5532,0,1.5304,1.5333,1.5358,1.5384,1.5402,1.5435,1.544,1.5459,1.5456,1.5462,1.5502,1.5518,1.5546,1.5558,1.5556,1.5607,1.5599,1.5587,1.5563,1.5609,1.5627,1.5635,1.5535,1.5535,1.5534,1.5534,0,0,1.5374,1.54,1.5409,1.542,1.5442,1.5465,1.5497,1.5524,1.5539,1.556,1.5586,1.5626,1.5614,1.563,1.563,1.5653,1.5699,1.5638,1.5638,1.5648,1.5754,1.5763,1.5771,1.5694,1.5695,1.5696,1.5752,0,1.5429,1.5485,1.5486,1.5538,1.5564,1.5554,1.5582,1.5599,1.5606,1.5629,1.5637,1.5664,1.5648,1.5657,1.5679,1.5688,1.572,1.5684,1.5719,1.572,1.5712,1.5781,1.579,1.5842,1.576,1.5761,1.5762,0,1.5501,1.5522,1.5577,1.5594,1.5605,1.563,1.5655,1.5678,1.5697,1.57,1.5717,1.5713,1.5747,1.5723,1.5769,1.5745,1.5759,1.5766,1.5768,1.577,1.5743,1.5785,1.5859,1.5867,1.5773,1.5773,1.5772,0,1.5546,1.5588,1.5626,1.5636,1.5658,1.5676,1.5686,1.5703,1.5719,1.5741,1.5751,1.5777,1.5791,1.5811,1.5814,1.5797,1.586,1.5837,1.5864,1.5864,1.5877,1.5876,1.5954,1.5888,1.5888,1.5887,1.5887,0,1.5607,1.564,1.5646,1.5669,1.5706,1.5707,1.5743,1.5752,1.5767,1.5792,1.5786,1.581,1.5813,1.5838,1.5841,1.5878,1.5885,1.5888,1.5889,1.5888,1.5888,1.5897,1.5893,1.5889,1.5889,1.5889,1.5888,0,1.5662,1.5667,1.5708,1.5725,1.573,1.5756,1.5771,1.5793,1.5799,1.5831,1.5838,1.5848,1.5877,1.5882,1.5916,1.5918,1.5962,1.596,1.5956,1.5955,1.5981,1.5978,1.6067,1.6078,1.6006,1.6006,1.6007,0,1.57,1.5725,1.5745,1.5761,1.5771,1.5797,1.5813,1.5815,1.5832,1.5856,1.5875,1.5903,1.5925,1.5971,1.5981,1.6007,1.6005,1.6034,1.6008,1.6007,1.6004,1.6002,1.6004,1.6038,1.6039,1.604,1.604,0,1.5767,1.5768,1.5791,1.5815,1.5835,1.5854,1.5872,1.5886,1.589,1.591,1.5938,1.5956,1.599,1.6017,1.6043,1.6054,1.6048,1.6048,1.6056,1.6055,1.6051,1.6053,1.5968,1.6046,1.6046,1.6045,1.6045,1.6045,1.5814,1.5836,1.5853,1.5879,1.5893,1.591,1.5931,1.594,1.5963,1.5991,1.5991,1.6022,1.6041,1.6075,1.6087,1.6112,1.6103,1.6114,1.6116,1.6119,1.6121,1.6048,1.6117,1.6117,1.6117,1.6116,1.6116,0,1.5879,1.589,1.5914,1.5939,1.596,1.5952,1.5972,1.5989,1.6017,1.6034,1.6056,1.6089,1.6116,1.6128,1.6154,1.6172,1.617,1.6179,1.6177,1.6179,1.6128,1.6118,1.618,1.618,1.618,1.618,1.618,1.618,1.5916,1.5952,1.5955,1.5998,1.6009,1.6039,1.6051,1.6066,1.608,1.6117,1.6139,1.6147,1.6162,1.6189,1.6214,1.6217,1.6226,1.6236,1.6238,1.619,1.6183,1.6177,1.6168,1.6239,1.6239,1.6287,1.6288,1.6288]},{"header":{"parameterUnit":"m.s-1","parameterCategory":1,"la1":30.2991,"la2":30.254,"lo1":-89.0895,"lo2":-89.0444,"dy":0.0017,"dx":0.0017,"nx":28,"ny":28,"refTime":"2024-06-23T03:00:00:Z","depth":0,"parameterNumber":3,"parameterNumberName":"V-component_of_WINDS"},"data":[0,0,0,0,0,0,0,0,0,0,0,0,0,0,0,0,0,0,0,0,0,0,0,0,0,0,0,0,0,0,0,0,0,0,0,0,0,0,0,0,0,0,0,0,0,0,0,0,0,0,0,0,0,0,0,0,0,0,1.5768,1.577,0,1.5914,1.5916,1.5917,1.596,1.5959,1.5958,1.5958,1.6106,1.6111,1.6115,0,0,0,0,0,0,0,0,0,0,0,0,0,1.5524,1.5529,1.5768,1.577,1.5772,1.5914,1.5916,1.5918,1.596,1.5959,1.5958,1.5957,1.6105,1.611,1.6116,0,0,0,0,0,0,0,0,0,0,0,0,0,1.5646,1.553,1.5768,1.581,1.5815,1.5913,1.5916,1.5918,1.596,1.5959,1.5958,1.5957,1.6103,1.611,1.6116,1.6183,0,0,1.6138,1.6141,0,0,0,0,0,0,0,0,1.5639,1.5655,1.5802,1.5807,1.5813,1.5918,1.5884,1.6007,1.5961,1.5905,1.5958,1.5956,1.6044,1.6056,1.6086,1.619,1.6196,1.6138,1.6143,1.6146,1.6148,0,0,0,0,0,0,0,1.5631,1.5649,1.5826,1.5804,1.5811,1.5821,1.5837,1.5908,1.5979,1.591,1.5913,1.593,1.6047,1.6079,1.609,1.6198,1.6138,1.6145,1.6149,1.6152,1.6365,1.6366,0,0,0,0,0,0,1.5615,1.5642,1.5821,1.583,1.5722,1.5826,1.5844,1.5885,1.5979,1.5992,1.5931,1.5932,1.6068,1.6081,1.6095,1.618,1.6146,1.6152,1.6156,1.6363,1.6365,1.6367,0,0,0,0,0,0,1.561,1.5631,1.5815,1.5737,1.5761,1.5832,1.5877,1.5889,1.5921,1.5995,1.6007,1.5951,1.6067,1.6085,1.6161,1.6185,1.6155,1.6162,1.6361,1.6364,1.6366,1.6349,0,0,0,0,0,0,1.5603,1.5629,1.5655,1.5737,1.5765,1.5879,1.5879,1.5892,1.5933,1.5935,1.6016,1.6029,1.6068,1.615,1.6168,1.6195,1.6167,1.636,1.6362,1.6365,1.6348,1.635,1.6352,0,0,0,0,0,1.5594,1.5644,1.5656,1.5677,1.58,1.588,1.5896,1.594,1.5935,1.5962,1.6009,1.6026,1.618,1.6158,1.6178,1.6207,1.6358,1.6362,1.6365,1.6346,1.635,1.6352,0,0,0,0,0,0,1.5562,1.5655,1.567,1.5748,1.5806,1.5887,1.5923,1.5942,1.6003,1.6002,1.6054,1.6072,1.6144,1.6183,1.6157,1.6276,1.6269,1.6277,1.6249,1.6252,1.6255,1.6244,1.6173,0,0,0,0,0,1.5564,1.5622,1.5701,1.5762,1.579,1.5851,1.5888,1.5917,1.5979,1.6004,1.6057,1.6116,1.6177,1.6217,1.6277,1.6353,1.6372,1.6383,1.6385,1.6387,1.6393,1.6436,1.6443,1.6377,1.6377,1.6377,0,0,1.5569,1.5627,1.5661,1.5757,1.5805,1.5864,1.5872,1.5933,1.5978,1.6013,1.6088,1.6129,1.6198,1.6274,1.631,1.6309,1.6415,1.6391,1.6392,1.6397,1.644,1.6447,1.6452,1.638,1.6379,1.6379,0,0,1.5609,1.5658,1.5715,1.5764,1.5837,1.5877,1.589,1.5969,1.5998,1.6074,1.6102,1.6155,1.626,1.6308,1.6346,1.6404,1.6422,1.6422,1.6435,1.6477,1.6482,1.6487,1.6508,1.6515,1.6428,1.6428,1.6428,0,1.5606,1.5696,1.5742,1.5803,1.5845,1.5879,1.5938,1.5982,1.6071,1.6099,1.6096,1.6228,1.6277,1.6366,1.638,1.6409,1.6426,1.6414,1.6478,1.6483,1.6488,1.6509,1.6517,1.6427,1.6427,1.6427,1.6427,0,1.5689,1.5751,1.5788,1.5874,1.592,1.5978,1.6033,1.6074,1.6099,1.6139,1.6216,1.6276,1.635,1.6373,1.6398,1.6465,1.6462,1.6467,1.6462,1.6493,1.6514,1.6522,1.6427,1.6427,1.6427,1.6427,0,0,1.5713,1.5824,1.5837,1.5876,1.5959,1.6008,1.6068,1.6141,1.6175,1.6235,1.6287,1.6375,1.6381,1.6424,1.6455,1.6491,1.6534,1.6493,1.6495,1.6499,1.6612,1.6608,1.6616,1.6546,1.6547,1.6549,1.6606,0,1.5764,1.5874,1.5917,1.6007,1.6065,1.6099,1.6151,1.6208,1.6247,1.6302,1.6345,1.6407,1.6409,1.6436,1.6473,1.652,1.6557,1.6517,1.6595,1.6597,1.6577,1.6627,1.6623,1.6674,1.6615,1.6616,1.6617,0,1.5838,1.5899,1.5994,1.6071,1.6097,1.6143,1.6214,1.6265,1.633,1.6356,1.6404,1.6433,1.6497,1.6486,1.6576,1.6548,1.6582,1.661,1.6613,1.6622,1.6609,1.6638,1.6691,1.6699,1.663,1.6629,1.6628,0,1.5847,1.5953,1.6024,1.6056,1.6147,1.6179,1.6218,1.6282,1.6323,1.6384,1.6411,1.6478,1.6515,1.6567,1.6612,1.66,1.6698,1.6691,1.6721,1.672,1.6741,1.6739,1.6801,1.6761,1.6761,1.6761,1.6761,0,1.5899,1.5956,1.6029,1.6073,1.6138,1.6187,1.625,1.6291,1.6347,1.64,1.6432,1.6481,1.6537,1.6593,1.6629,1.6698,1.6714,1.6736,1.6745,1.6734,1.6731,1.6758,1.6756,1.6763,1.6763,1.6762,1.6762,0,1.592,1.5972,1.6051,1.6131,1.6152,1.6197,1.6264,1.6308,1.6349,1.6414,1.6432,1.6496,1.6563,1.6613,1.67,1.6724,1.6797,1.6806,1.6776,1.678,1.6808,1.6805,1.689,1.6904,1.6854,1.6854,1.6855,0,1.5951,1.5996,1.608,1.6118,1.6157,1.6217,1.6259,1.6309,1.6351,1.6428,1.6463,1.6532,1.659,1.6695,1.6749,1.6815,1.6826,1.6852,1.6837,1.6824,1.6828,1.6825,1.683,1.6854,1.6854,1.6854,1.6854,0,1.6,1.6023,1.6083,1.6152,1.6201,1.6257,1.6314,1.6343,1.6403,1.6449,1.6518,1.6563,1.6652,1.672,1.6792,1.6832,1.6853,1.6859,1.6869,1.6859,1.6839,1.6851,1.6782,1.6857,1.6856,1.6856,1.6856,1.6856,1.6028,1.6069,1.6135,1.6201,1.6249,1.6301,1.6347,1.6393,1.6452,1.6528,1.6553,1.6625,1.6688,1.6787,1.6828,1.6884,1.6884,1.6899,1.6903,1.6907,1.6906,1.683,1.6897,1.6897,1.6897,1.6897,1.6897,0,1.6079,1.6123,1.6183,1.6262,1.6313,1.6329,1.6393,1.6435,1.6498,1.6555,1.6612,1.6691,1.6758,1.6817,1.6886,1.692,1.6931,1.6936,1.6934,1.6943,1.6902,1.6886,1.6926,1.6926,1.6926,1.6926,1.6926,1.6926,1.6112,1.6184,1.6214,1.631,1.6354,1.6425,1.646,1.6508,1.6555,1.6642,1.6698,1.6736,1.6794,1.6868,1.6929,1.6945,1.6969,1.6972,1.699,1.695,1.6946,1.6943,1.6928,1.6976,1.6976,1.7027,1.7027,1.7028]}]]